Theta_e
326 334 339 341 343 341 340 339 341 340 340 336 334 333 332 333 333 334 334 335 335 336 339 339 338 337 337 335 334 332 331 329 332 333 333 332 331 330 329 333 333 334 335
323 338 340 341 343 343 340 339 339 341 340 339 335 335 336 336 335 335 334 333 330 335 338 337 337 336 336 331 328 326 326 331 331 330 330 329 330 330 331 332 332 334 332
312 328 339 341 343 343 342 340 338 338 340 340 337 335 336 336 336 335 334 330 332 337 337 336 335 334 334 326 326 325 329 332 329 327 327 328 329 329 331 332 334 333 332
310 312 328 340 342 343 341 341 338 337 338 339 340 335 335 337 335 338 334 330 333 337 337 334 333 334 331 330 328 332 333 331 326 324 325 327 329 332 333 334 334 333 333
307 308 313 328 340 341 341 339 340 338 337 338 339 337 336 336 337 337 336 332 333 336 337 335 335 336 331 329 330 331 327 327 326 325 325 325 328 331 333 334 331 330 333
306 307 309 311 326 339 340 339 338 339 337 336 337 337 336 336 337 336 336 333 333 335 337 336 336 334 330 331 330 329 326 325 325 324 325 324 327 329 332 332 327 331 332
306 307 307 308 310 319 336 339 338 336 335 336 335 335 335 334 335 335 336 335 334 334 336 335 335 334 331 327 326 326 325 323 324 325 325 324 325 326 330 327 327 330 332
306 307 307 307 307 308 316 331 339 338 335 334 336 336 334 335 335 334 336 336 334 334 334 335 332 333 332 327 326 325 325 324 324 324 324 325 324 323 328 326 327 327 329
306 306 306 306 306 306 305 310 326 338 338 333 334 336 336 335 335 334 335 336 335 334 333 334 333 330 329 327 326 324 324 323 322 323 325 324 323 325 327 327 326 325 327
305 305 305 306 305 305 306 304 308 320 336 336 334 335 336 336 335 334 334 335 335 334 333 333 333 330 328 327 326 324 323 322 323 323 324 323 323 326 331 328 326 325 327
303 303 304 304 305 305 306 305 304 308 314 334 335 334 335 336 335 335 334 334 335 334 332 330 332 332 328 326 325 324 323 322 322 323 322 323 323 325 327 326 325 326 328
301 301 302 304 304 304 305 305 305 308 309 315 332 336 333 334 335 335 335 335 334 334 332 331 331 331 328 326 325 324 323 323 320 322 321 322 323 325 326 327 325 325 328
299 299 299 300 301 302 304 305 306 305 311 311 319 333 336 334 334 334 335 335 334 334 332 332 330 329 327 326 325 324 323 322 321 318 320 321 320 324 325 327 329 327 328
298 298 298 298 298 298 300 304 305 305 305 313 312 321 334 336 335 332 333 334 334 334 333 332 331 330 328 325 323 324 323 322 321 316 319 321 320 321 324 324 328 328 328
297 297 296 296 296 297 299 301 303 305 305 305 310 314 320 333 335 334 332 334 334 334 333 332 331 330 327 324 322 322 322 321 319 319 320 321 321 321 322 323 328 327 328
297 296 296 296 296 297 298 298 300 303 305 305 305 306 308 317 330 334 334 333 334 334 332 332 331 330 327 324 323 323 322 322 319 320 321 321 321 321 320 323 328 329 330
296 295 295 295 295 296 296 297 298 300 303 304 305 307 310 308 312 326 332 334 333 333 333 332 330 329 327 324 324 324 323 323 319 319 320 321 321 321 319 316 322 328 329
294 294 294 294 294 295 296 297 298 299 300 303 304 305 305 306 307 310 318 328 329 333 332 330 329 327 326 325 324 324 325 323 320 319 320 320 320 319 318 317 315 319 326
293 293 293 293 294 294 294 296 298 299 301 302 303 305 306 310 310 310 315 322 326 330 332 330 328 327 326 324 324 323 324 322 320 319 318 319 319 318 318 318 314 315 316
293 293 292 293 293 294 295 296 297 300 301 302 302 304 306 307 307 308 314 322 325 329 329 328 328 327 326 325 323 322 322 323 321 320 319 318 318 318 318 317 318 316 314
292 292 291 291 292 293 294 294 295 297 299 302 303 304 304 307 307 309 314 320 325 328 329 329 329 328 325 323 322 319 320 321 320 320 318 317 317 317 317 317 317 317 316
291 291 291 291 292 294 293 294 296 296 298 300 303 303 306 307 308 309 312 320 323 326 328 329 328 326 324 323 321 319 319 317 315 315 315 314 315 315 316 315 316 316 316
289 290 290 291 291 292 293 294 296 298 299 301 302 303 305 308 308 311 311 314 321 326 328 329 328 327 325 322 323 321 319 321 316 316 314 314 314 314 313 313 313 314 314
289 289 289 290 291 292 292 294 296 298 300 301 302 304 305 311 311 311 314 314 315 321 325 327 328 327 326 323 322 321 321 320 320 320 317 315 315 315 314 314 314 313 313
288 288 289 290 290 291 291 293 296 298 300 301 303 303 306 308 309 310 316 316 317 320 324 325 326 327 326 324 323 320 319 319 319 318 318 316 315 314 314 314 314 314 314
287 287 288 288 289 289 290 292 295 298 303 302 303 304 308 310 310 312 313 314 317 319 321 324 326 325 325 325 323 321 321 321 319 318 318 317 317 316 316 316 315 315 315
Wind_Speed
21 14 10 8 9 9 13 13 12 13 12 11 9 9 9 9 11 13 16 17 16 15 14 12 12 12 11 12 13 13 11 12 13 15 14 16 15 17 18 14 13 14 15
15 14 7 3 9 10 12 12 12 13 14 12 11 10 10 10 12 14 15 15 15 14 13 14 11 11 12 12 12 12 13 16 15 16 17 16 18 16 15 12 13 14 14
22 18 13 2 7 11 11 13 11 12 15 15 14 13 11 12 14 17 16 14 15 13 13 13 13 12 12 13 13 13 16 17 17 13 14 18 20 17 13 13 14 15 15
20 22 16 9 7 9 11 12 13 13 14 16 15 14 14 14 15 17 17 17 14 14 13 14 15 14 13 14 15 16 19 20 15 9 12 18 18 13 14 15 15 16 17
19 22 22 16 6 9 10 12 14 15 15 17 16 16 15 17 17 18 18 18 17 16 15 16 16 16 16 16 18 19 16 15 13 14 14 18 18 12 13 12 13 16 18
19 20 21 20 16 6 12 11 15 16 16 18 18 19 18 17 18 19 20 20 19 18 18 19 18 17 17 20 20 19 17 16 13 14 14 16 17 11 10 11 11 12 15
17 18 20 21 19 16 8 14 14 17 18 19 19 20 21 20 20 21 22 21 21 19 16 17 20 20 20 21 19 18 19 14 18 12 22 19 19 14 8 7 9 11 13
17 16 17 21 21 19 17 12 14 17 18 20 20 20 21 22 23 23 24 23 22 20 19 18 18 22 23 22 20 19 19 19 18 14 19 18 18 19 12 10 8 11 11
17 18 19 21 23 22 18 16 14 16 20 21 22 22 21 21 23 23 24 25 25 22 21 20 21 22 24 22 21 20 18 17 23 10 20 14 15 19 17 13 12 10 12
21 22 22 22 25 26 24 19 15 16 17 23 24 24 24 23 24 25 25 25 27 25 24 23 24 24 24 23 22 22 20 22 23 14 19 12 18 20 17 17 13 11 12
24 27 26 26 25 26 27 25 19 16 16 17 26 27 26 27 27 27 27 28 27 27 25 25 26 26 25 25 23 24 21 21 24 18 14 15 16 18 18 18 17 13 14
26 26 25 25 26 25 25 27 25 19 18 17 15 28 29 30 30 29 29 30 29 29 27 28 29 27 27 26 26 25 25 21 26 22 14 18 18 18 18 18 17 20 18
21 24 25 28 29 28 26 27 27 24 20 19 18 17 31 32 32 32 32 32 32 31 30 31 30 29 30 29 28 28 27 24 23 25 17 19 20 19 18 19 17 19 20
19 23 25 26 29 29 28 26 26 28 24 22 21 19 17 33 35 35 36 37 36 35 33 34 34 33 32 30 29 28 26 25 24 26 22 20 20 21 19 20 18 18 20
18 22 26 28 30 31 30 28 27 28 28 26 24 21 19 19 35 36 36 38 38 40 38 39 38 36 35 33 31 30 28 25 24 24 23 20 20 21 18 22 21 19 20
23 28 28 28 26 27 31 32 32 29 27 28 28 28 23 22 22 33 35 36 40 40 41 39 43 40 38 34 32 32 28 27 27 25 22 23 22 21 18 23 20 16 20
24 24 27 27 27 27 31 34 32 33 31 29 29 28 27 25 24 26 23 29 41 40 41 40 39 38 38 37 35 32 30 29 29 28 25 23 24 22 19 23 26 20 17
26 28 30 30 31 31 29 29 32 32 33 33 31 32 32 30 28 25 25 24 36 29 42 36 36 36 38 40 38 38 31 31 30 30 25 22 23 23 22 24 27 29 26
29 29 27 27 29 30 33 30 29 31 33 32 34 32 32 28 25 24 24 21 17 32 25 35 33 37 36 34 34 36 36 31 32 31 32 27 25 26 24 22 27 29 29
28 27 28 25 26 28 24 28 26 25 30 32 35 35 33 33 31 27 25 23 22 28 28 22 30 26 29 30 26 28 35 33 31 31 32 33 32 29 28 26 25 28 31
26 29 25 26 27 28 24 26 27 24 26 28 30 31 33 32 30 26 25 25 26 27 24 35 36 34 22 24 19 17 24 27 30 32 34 34 34 34 31 32 30 29 28
25 26 27 27 25 24 26 28 26 26 29 31 30 29 32 33 30 26 26 26 25 28 30 31 32 26 24 37 16 17 4 8 26 32 33 35 37 36 35 35 34 33 32
24 25 25 25 28 25 28 29 27 26 26 27 29 28 28 32 30 25 26 26 25 29 27 32 36 29 23 30 31 11 3 4 4 17 35 36 37 37 37 38 37 36 36
24 25 26 24 26 25 28 28 26 26 24 25 26 25 26 22 24 23 21 24 27 26 27 31 35 33 26 22 25 26 16 16 4 1 15 31 35 35 37 38 36 37 37
25 26 25 22 25 26 29 27 27 27 31 28 27 28 28 23 21 22 19 17 22 26 29 28 35 34 35 32 33 28 22 17 14 3 3 5 22 32 37 38 39 38 35
26 26 25 24 23 25 25 27 27 34 26 22 22 22 21 18 22 19 15 16 16 22 28 30 33 38 38 39 34 30 29 17 11 6 2 3 9 18 33 34 36 33 32
Wind_Direction
354 349 317 273 233 206 200 188 185 184 185 182 179 170 167 164 166 169 161 159 160 159 152 157 162 164 158 156 153 154 156 151 141 131 124 122 121 127 129 122 120 120 120
358 1 331 274 232 221 215 206 201 198 192 194 188 184 175 173 171 172 170 165 166 166 161 160 165 166 160 163 165 162 157 150 147 139 132 128 128 129 136 133 126 123 123
10 8 8 303 233 232 224 219 213 208 203 200 196 191 186 183 182 180 180 178 170 170 167 166 166 168 168 165 164 167 159 149 137 133 145 134 138 139 144 144 137 127 130
9 8 8 355 244 234 240 231 220 218 210 207 206 198 193 190 193 190 188 185 182 172 176 172 169 169 177 167 160 151 148 146 137 156 155 146 146 134 131 136 137 136 132
11 5 5 1 341 243 240 247 234 225 221 217 212 212 203 199 200 201 198 193 188 178 182 178 178 178 177 173 159 159 158 157 150 151 150 166 156 136 126 127 135 140 141
8 358 0 4 357 290 241 244 252 238 227 226 221 216 216 211 207 206 207 201 195 192 187 185 185 185 180 170 168 170 167 174 175 168 171 165 167 149 141 147 139 133 147
5 355 349 352 359 355 331 249 242 248 238 230 230 226 222 221 213 211 211 208 201 202 199 189 187 189 185 179 177 175 173 174 185 171 169 170 180 168 163 166 153 146 145
11 1 352 346 349 351 344 330 250 242 247 243 236 231 232 228 219 215 214 209 207 205 202 191 185 184 187 186 183 182 181 179 189 178 179 181 189 201 180 183 172 167 158
14 13 6 354 344 344 344 334 322 252 241 241 245 239 234 232 227 223 219 214 211 210 204 204 201 192 193 193 190 186 187 191 191 184 183 184 193 185 186 194 181 179 178
11 7 4 356 347 337 337 333 321 315 258 237 237 242 239 235 230 229 226 220 217 213 208 208 209 199 197 198 196 195 195 192 194 193 189 185 190 188 189 194 196 201 191
356 355 352 347 344 336 332 332 322 312 308 267 237 235 239 237 233 230 229 225 223 220 216 210 206 204 202 204 202 197 198 198 208 200 195 194 195 194 194 194 206 205 202
353 351 345 342 341 340 333 327 323 311 307 294 275 240 236 237 237 234 230 229 228 223 221 212 207 206 203 202 203 201 199 204 208 211 211 205 201 202 204 204 210 204 203
350 340 334 326 322 322 323 326 317 314 307 299 280 281 241 238 238 236 234 231 227 224 220 214 210 207 203 204 204 201 199 201 208 218 218 211 214 206 207 207 215 205 206
340 333 333 331 327 322 312 309 312 307 304 300 290 270 267 241 238 237 234 234 230 224 220 214 213 210 207 206 207 205 208 209 210 205 217 220 217 219 213 214 216 211 212
338 330 327 326 324 320 318 309 304 300 294 290 289 283 274 264 236 234 233 230 228 224 220 212 213 213 210 207 206 205 206 208 210 206 215 217 218 217 225 214 219 222 209
329 324 322 321 318 314 308 304 297 294 297 287 281 279 278 270 269 227 230 229 227 219 214 207 209 212 211 208 209 207 212 215 211 211 219 217 221 224 236 214 221 220 214
333 329 323 322 315 307 303 303 300 291 285 288 285 277 276 272 271 265 249 232 223 212 211 203 206 207 207 209 209 211 216 216 210 207 214 218 215 217 223 223 222 226 224
327 324 322 320 313 309 306 302 299 293 284 279 279 280 273 272 270 269 272 273 251 207 208 195 195 195 202 208 210 212 210 213 211 213 214 214 216 218 222 225 225 225 225
327 325 324 322 315 310 307 303 296 292 287 282 276 274 273 266 269 270 265 261 246 243 230 196 190 196 196 203 209 213 212 207 209 216 223 222 221 223 225 230 227 227 230
320 319 320 318 313 313 310 306 304 301 287 282 273 267 269 265 266 265 262 260 252 237 224 209 215 206 199 203 200 210 216 215 215 220 226 228 230 230 232 233 231 230 233
323 320 320 317 310 305 303 305 298 291 297 283 280 273 265 263 261 255 255 252 247 230 217 211 204 194 193 191 174 193 208 217 222 228 231 231 233 233 234 236 236 236 235
321 321 316 312 308 303 305 297 285 283 282 283 279 274 268 255 254 252 245 248 247 240 226 203 190 188 185 186 175 174 165 221 232 232 230 232 234 236 235 235 237 240 240
315 311 309 308 308 298 302 297 286 279 278 274 272 270 269 250 250 247 246 248 247 243 213 203 193 198 197 187 190 166 137 192 190 229 228 229 231 233 236 238 237 241 243
310 310 306 305 303 301 303 297 284 276 271 267 270 272 265 243 231 244 246 243 250 249 230 212 205 192 179 176 175 188 177 157 185 246 229 227 227 231 237 239 240 241 243
313 312 306 305 305 300 301 298 288 278 265 258 261 264 266 246 245 244 235 245 247 248 238 221 207 194 189 181 190 184 174 176 164 152 216 211 220 231 236 241 243 244 246
316 310 307 306 303 303 301 304 296 289 249 239 252 257 257 241 228 230 242 243 259 250 243 227 220 207 202 202 192 187 193 181 170 177 159 190 202 217 233 240 242 244 244